Regional Weather Roundup
Issued by NWS Upton, NY

Home | Current Version | Previous Version | Text Only | Print | Product List | Glossary On
Versions: 1 2 3 4 5 6 7 8 9 10 11 12 13 14 15 16 17 18 19 20 21 22 23 24 25 26 27 28 29 30 31 32 33 34 35 36 37 38 39 40 41 42 43 44 45 46 47 48 49 50
000
ASUS41 KOKX 292208
RWROKX

REGIONAL WEATHER ROUNDUP
NATIONAL WEATHER SERVICE NEW YORK NY
600 PM EDT THU SEP 29 2016

NOTE: "FAIR" INDICATES FEW OR NO CLOUDS BELOW 12,000 FEET WITH NO
SIGNIFICANT WEATHER AND/OR OBSTRUCTIONS TO VISIBILITY.

NYZ071-072-176-178-NJZ106-104-292300-
NEW YORK CITY METRO AREA

CITY           SKY/WX    TMP DP  RH WIND       PRES   REMARKS
Central Park   CLOUDY    63  52  67 E9G17     30.37S
LaGuardia APRT CLOUDY    65  53  65 E18G25    30.34S
Kennedy INTL   CLOUDY    62  51  67 NE13      30.35S
Newark/Liberty LGT RAIN  64  52  64 E17G23    30.34S
Bronx Bot Gard   N/A     63  52  67 E3        30.37R
Wall St Helipt MOCLDY    64  55  72 NE14      30.34F
Teterboro      DRIZZLE   64  53  67 E9G20     30.33S
$$

NYZ177-179-078>081-292300-
LONG ISLAND NEW YORK

CITY           SKY/WX    TMP DP  RH WIND       PRES   REMARKS
Farmingdale    PTCLDY    62  51  67 E10G21    30.35F
MacArthur/ISP  CLOUDY    61  51  70 NE13G25   30.35F
Shirley        CLOUDY    60  52  74 VRB3      30.37S
Riverhead      NOT AVBL
Westhampton    CLOUDY    60  51  72 NE13G24   30.38F
Southampton      N/A     61  54  77 E12       30.34S
Bridgehampton    N/A     59  54  82 E7        30.23F
East Hampton   CLOUDY    59  51  74 E10G21    30.38S
Montauk          N/A     60  52  74 NE14G29   30.40F
$$

NYZ052-065-067-292300-
HUDSON VALLEY

CITY           SKY/WX    TMP DP  RH WIND       PRES   REMARKS
White Plains   CLOUDY    63  49  60 NE8       30.35F
Newburgh       PTCLDY    63  50  63 E14       30.39R
Montgomery     CLOUDY    63  48  58 E10       30.38R
Poughkeepsie   CLOUDY    62  46  55 NE6       30.38R
Albany         MOCLDY    64  46  52 NE8       30.41R
$$

NJZ001-105-106-008-010-013-015-019>022-104-292300-
NEW JERSEY

CITY           SKY/WX    TMP DP  RH WIND       PRES   REMARKS
Newark/Liberty LGT RAIN  64  52  64 E17G23    30.34S
Teterboro      DRIZZLE   64  53  67 E9G20     30.33S
Caldwell       CLOUDY    64  54  69 E12G21    30.34F
Morristown     MOCLDY    63  55  77 E9G21     30.34S
Somerville     LGT RAIN  63  53  70 VRB5      30.31S
Linden         NOT AVBL
Sussex         MOCLDY    62  51  67 NE10      30.34S
Abdover          N/A     61  52  72 VRB6      30.34S
Trenton        LGT RAIN  59  56  89 E15G21    30.30S
Millville      LGT RAIN  63  63 100 E16G22    30.24R FOG
Atlantic City  RAIN      63  60  90 NE22G32   30.24F FOG
Wrightstown    LGT RAIN  60  59  94 NE18G28   30.26S
Toms River     LGT RAIN  61  59  93 NE17G25   30.30S
Belmar         LGT RAIN  62  57  83 NE21G35   30.32S
$$

PAZ047>061-062-071-292300-
EASTERN PENNSYLVANIA

CITY           SKY/WX    TMP DP  RH WIND       PRES   REMARKS
Philadelphia   LGT RAIN  62  59  90 E21G29    30.26R
Allentown      CLOUDY    62  52  69 E13G21    30.30R
Scranton       CLOUDY    60  50  69 NE9G20    30.31F
$$

CTZ002-004>006-009-010-012-RIZ004-006-007-MAZ004-011-015-292300-
SOUTHERN NEW ENGLAND
 IN CT

CITY           SKY/WX    TMP DP  RH WIND       PRES   REMARKS
Bradley INTL   MOCLDY    61  46  57 NE9       30.42F
Hartford       CLOUDY    62  47  57 NE8       30.41S
Danbury        CLOUDY    60  48  64 NE8       30.40R
Wtrbury/Oxford MOCLDY    59  45  58 E9G20     30.40F
Bridgeport     CLOUDY    66  50  56 NE15      30.38R
Meriden        PTCLDY    63  47  55 NE10G16   30.40S
New Haven      MOCLDY    63  48  58 E12       30.39R
Chester        FAIR      59  48  67 NE7G14    30.40S
Groton         CLOUDY    60  49  66 NE20G25   30.40S
Wilimantic     MOCLDY    59  48  67 E10       30.44R

 IN RI

CITY           SKY/WX    TMP DP  RH WIND       PRES   REMARKS
Providence     CLOUDY    58  48  69 NE13G22   30.46R
Block Island   CLOUDY    59  52  77 NE17G29   30.40F
Westerly       MOCLDY    59  48  67 NE9       30.42S
 IN MA

CITY           SKY/WX    TMP DP  RH WIND       PRES   REMARKS
Boston         MOCLDY    56  48  74 NE16      30.50R
Worcester      PTCLDY    54  44  69 NE10G16   30.46S
Westfield      PTCLDY    61  44  53 E10       30.44R
Provincetown   CLOUDY    57  50  77 NE16      30.47S
Nantucket      CLOUDY    59  52  77 NE18      30.41R
$$

ANZ330-335-338-340-345-350-353-355-292300-
COASTAL MARINE OBSERVATIONS


STATION/POSITION TIME  SKY/WX   TEMP    WIND        PRES    VSBY  WAVE
                                AIR SEA DIR/SP/G                  HT/PER
                 (UTC)          (F)     (DEG/KT/KT) (MB)    (MI)  (FT/S)
NY HARB ENTRANCE 2150            64 70   70/ 27/ 35 1025.8         10/ 8
20S FIRE ISLAND  2150            63 67   70/ 27/ 33 1025.4         12/ 8
GREAT SOUTH BAY  2115            62 66   60/ 21/ 27   N/A
23 SSW MONTAUK P 2150            62 65   60/ 27/ 31 1027.7          9/ 8
15 E BARNEGAT LI 2130               70                N/A          12/ 9
HUDSON CANYON    2050            65 69              1023.8         12/ 9
KINGS POINT      2124            62 71              1027.6
EXECUTION ROCKS  2145            65      80/ 17/ 23   N/A
CENTRAL LI SOUND 2100            64 71   80/ 19/ 23   N/A           3/ 5
EASTERN LI SOUND NOT AVBL
ROBBINS REEF     2124            63      80/ 15/ 18 1027.4
$$


>>>>>>>>>>>>>>>>>>>>>>>>>>>> KEY <<<<<<<<<<<<<<<<<<<<<<<<<<<
>                                                          <
>     SKY/WX - Sky Condition/Present Weather               <
>     TMP    - Temperature in Fahrenheit                   <
>     DP     - Dew Point in Fahrenheit                     <
>     RH     - Relative Humidity in Percent                <
>     WIND   - Direction (from) and Speed in MPH           <
>     PRES   - Mean Sea Level Pressure (inches of Hg)      <
>     WCI    - Wind Chill Index                            <
>     VSB    - VISIBILITY IN MILES                         <
>     HX     - HEAT INDEX                                  <
>     TC     - TEMPERATURE IN CELSIUS                      <
>     VRB    - VARIABLE WIND DIRECTION                     <
>                                                          <
>>>>>>>>>>>>>>>>>>>>>>>>>>>> KEY <<<<<<<<<<<<<<<<<<<<<<<<<<<



USA.gov is the U.S. government's official web portal to all federal, state and local government web resources and services.